Regional Weather Roundup
Issued by NWS

Home | Current Version | Previous Version | Text Only | Print | Product List | Glossary On
Versions: 1 2 3 4 5 6 7 8 9 10 11 12 13 14 15 16 17 18 19 20 21 22 23 24 25 26 27 28 29 30 31 32 33 34 35 36 37 38 39 40 41 42 43 44 45 46 47 48 49 50
000
ASUS44 KFWD 100215
RWRTX
NORTH TEXAS HOURLY WEATHER ROUNDUP
NATIONAL WEATHER SERVICE FORT WORTH TX
800 PM CST FRI DEC 09 2016

NOTE: "FAIR" INDICATES FEW OR NO CLOUDS BELOW 12,000 FEET WITH NO
SIGNIFICANT WEATHER AND/OR OBSTRUCTIONS TO VISIBILITY.

TXZ118-119-100300-
DALLAS/FORT WORTH METROPLEX

CITY           SKY/WX    TMP DP  RH WIND       PRES   REMARKS
DFW AIRPORT    PTCLDY    33  19  56 SE6       30.50S WCI  28
DALLAS LOVE    PTCLDY    36  21  54 E6        30.52S WCI  31
FTW MEACHAM    CLEAR     35  17  47 E7        30.49S WCI  29
DAL-EXECUTIVE  CLEAR     33  21  61 SE5       30.50S WCI  29
FTW-ALLIANCE   PTCLDY    32  17  54 E5        30.49F WCI  27
FTW-NAS-JRB    PTCLDY    36  18  48 E6        30.50S WCI  31
FTW-SPINKS     CLEAR     33  21  63 CALM      30.52R
ARLINGTON      CLEAR     35  20  54 E5        30.51S WCI  31
GRAND PRAIRIE  CLEAR     35  20  55 CALM      30.53S
ADDISON        CLEAR     36  19  51 E6        30.52S WCI  31
MESQUITE       CLEAR     32  19  59 CALM      30.53S
LANCASTER      CLEAR     33  20  59 CALM      30.53S
$$

TXZ091>094-102>105-117-120-121-131>134-100300-
NORTH CENTRAL TEXAS

CITY           SKY/WX    TMP DP  RH WIND       PRES   REMARKS
SHRMAN/DENISON CLOUDY    37  20  51 SE7       30.52R WCI  31
GAINESVILLE    CLOUDY    35  19  51 SE7       30.52S WCI  29
BOWIE          CLOUDY    36  18  48 SE5       30.47R WCI  32
BRIDGEPORT     MOCLDY    36  21  54 SE3       30.49F
DECATUR        CLOUDY    35  17  48 E6        30.47F WCI  30
DENTON         MOCLDY    35  18  49 SE6       30.50F WCI  30
MCKINNEY       CLOUDY    36  21  54 SE5       30.52S WCI  32
BONHAM         CLOUDY    36  19  51 SE6       30.53R WCI  31
GREENVILLE     CLOUDY    37  25  60 CALM      30.53F
ROCKWALL       PTCLDY    34  23  63 E3        30.53S
TERRELL        CLEAR     31  23  72 NE5       30.53S WCI  26
WAXAHACHIE     CLEAR     32  22  66 CALM      30.52S
CLEBURNE       PTCLDY    34  21  60 E7        30.51R WCI  28
GRANBURY       CLEAR     38  22  53 SE6       30.50S WCI  33
$$

TXZ083>090-098>101-113>116-127>130-139>142-154-155-100300-
WESTERN NORTH TEXAS

CITY           SKY/WX    TMP DP  RH WIND       PRES   REMARKS
WICHITA FALLS  CLOUDY    36  18  48 SE8       30.45R WCI  30
WF-KICKAPOO    CLOUDY    37  17  44 SE7       30.47R WCI  31
VERNON         CLOUDY    37  17  42 SE7       30.43S WCI  32
ABILENE        CLEAR     33  24  69 SE9       30.39F WCI  25
ABILENE-DYESS  CLEAR     35  23  59 SE9       30.36F WCI  28
CISCO          PTCLDY    36  21  55 SE9       30.42R WCI  29
BRECKENRIDGE   CLEAR     35  20  54 SE8       30.43S WCI  29
GRAHAM         CLEAR     33  20  59 E3        30.44S
MINERAL WELLS  CLEAR     31  18  58 SE8       30.45F WCI  23
STEPHENVILLE   CLEAR     35  20  54 CALM      30.49R
COMANCHE       CLEAR     34  24  66 CALM      30.45S
BROWNWOOD      CLOUDY    37  21  52 SE7       30.45S WCI  32
COLEMAN        CLOUDY    40  25  55 S10       30.43R WCI  33
$$

TXZ143>147-156>162-174-175-100300-
CENTRAL TEXAS

CITY           SKY/WX    TMP DP  RH WIND       PRES   REMARKS
WACO           CLOUDY    38  25  59 SE6       30.50S WCI  33
WACO-TSTC      PTCLDY    37  21  52 CALM      30.52R
WACO-MCGREGOR  MOCLDY    38  29  70 S3        30.50S
HILLSBORO      CLEAR     36  24  61 E8        30.51R WCI  30
CORSICANA      CLEAR     38  24  57 NE7       30.53R WCI  33
MEXIA          CLOUDY    37  23  56 CALM      30.51R
HEARNE         CLOUDY    43  24  46 E3        30.54S
CAMERON        CLOUDY    43  28  55 CALM      30.52S
TEMPLE         CLOUDY    41  25  53 SE3       30.51S
KILLEEN        CLOUDY    40  22  49 SE8       30.47S WCI  34
KILLEEN-SKYLRK CLOUDY    41  23  48 SE7       30.49F WCI  36
FORT HOOD      CLOUDY    41  22  47 SE5       30.46S WCI  38
GATESVILLE     PTCLDY    37  27  65 CALM      30.51S
HAMILTON       MOCLDY    37  26  66 SE7       30.47R WCI  31
LAMPASAS       CLOUDY    40  26  56 SE3       30.46S
$$

TXZ095>097-106>112-122>126-135>138-148>153-164>167-100300-
EAST TEXAS

CITY           SKY/WX    TMP DP  RH WIND       PRES   REMARKS
PARIS          CLOUDY    37  21  52 SE5       30.54S WCI  34
SULPHUR SPRNGS CLOUDY    38  24  55 E3        30.57S
MOUNT PLEASANT CLOUDY    38  21  49 E3        30.57S
GILMER         CLOUDY    38  26  61 CALM      30.55R
MINEOLA        CLOUDY    37  28  70 CALM      30.54S
TYLER          CLEAR     33  27  78 CALM      30.53R
LONGVIEW       CLOUDY    37  30  75 CALM      30.54R
MARSHALL       CLOUDY    37  22  54 CALM      30.57R
ATHENS         CLEAR     32  23  69 CALM      30.53R
PALESTINE      CLEAR     35  26  71 NE3       30.53S
JACKSONVILLE   CLEAR     37  24  60 NE3       30.53S
HENDERSON      CLEAR     32  28  84 CALM      30.55S
CENTER         CLEAR     34  30  86 CALM      30.55S
NACOGDOCHES    CLEAR     32  27  80 CALM      30.51F
LUFKIN         CLOUDY    39  27  62 NE3       30.52F
$$

SUPPLEMENTAL OBSERVATIONS (CENTRAL)

CITY           SKY/WX    TMP DP  RH WIND       PRES   REMARKS
DENISON DAM      N/A     37  19  48 SE5         N/A  WCI  34
PAT MAYSE LAKE   N/A     36  18  48 E3          N/A
GREENVILLE       N/A     37  21  52 E5          N/A  WCI  34
LAKE LIMESTONE   N/A     39  25  56 CALM        N/A
$$

SUPPLEMENTAL OBSERVATIONS (WEST)

CITY           SKY/WX    TMP DP  RH WIND       PRES   REMARKS
MILLERS CREEK    N/A     36  21  55 SE10        N/A  WCI  28
COMANCHE         N/A     34  23  64 SE5         N/A  WCI  30
HAMBY            N/A     36  23  60 SE8         N/A  WCI  29
IVIE RESERVOIR   N/A     41  23  48 E8          N/A  WCI  36
COLORADO BEND    N/A     39  23  52 S3          N/A
$$

SUPPLEMENTAL OBSERVATIONS (EAST)

CITY           SKY/WX    TMP DP  RH WIND       PRES   REMARKS
CLARKSVILLE      N/A     37  21  52 E2          N/A
TEXARKANA        N/A     37  28  70 CALM        N/A
LINDEN           N/A     37  23  56 CALM        N/A
CADDO LAKE       N/A    N/A N/A N/A CALM        N/A
GILMER           N/A     39  28  65 E1          N/A
HENDERSON        N/A     32  28  86 NE3         N/A
LUFKIN           N/A     37  30  75 MISG        N/A
N SABINE NF      N/A     32  28  86 MISG        N/A
S SABINE NF      N/A     34  32  93 CALM        N/A
$$

SUPPLEMENTAL OBSERVATIONS ARE A COLLECTION OF AUTOMATED INSTRUMENTS
THAT ARE MAINTAINED BY A VARIETY OF FEDERAL AND STATE AGENCIES.
CERTAIN ELEMENTS...SUCH AS HUMIDITY VALUES AND SUSTAINED WIND
SPEEDS...MAY BE APPROXIMATED.




USA.gov is the U.S. government's official web portal to all federal, state and local government web resources and services.